Header for Extended Forecast Station List Page

Search by: ID | Name | Date | Parm | Value | Avg | % Avg
Sort by: ID | Name | Date | Parm | Value | Avg | % Avg

Enter search or view all records.

Click on id for station plot
#IDNameDateParmValueAvg% Avg
0MYKO3MCKAY CREEK-NEAR PILOT ROCK06-27-2022DISCHARGE (KAF)811115
1WRMO3MALHEUR-WARM SPRINGS DAM06-27-2022INFLOW (KAF)85163
2RIDI1WILLOW CREEK-RIRIE DAM06-27-2022INFLOW (KAF)2638
3TNAW1TEANAWAY-BELOW FORKS06-27-2022DISCHARGE (KAF)179188
4TCHW1WALLA WALLA-NEAR TOUCHET06-27-2022DISCHARGE (KAF)469521
5BERO3MALHEUR-AGENCY VALLEY DAM06-27-2022INFLOW (KAF)71261
6GIBO3UMATILLA-NEAR GIBBON06-27-2022DISCHARGE (KAF)1312108
7PDTO3UMATILLA-AT PENDLETON06-27-2022DISCHARGE (KAF)3913287
8LWRI1LITTLE WOOD-LITTLE WOOD DAM06-27-2022INFLOW (KAF)131493
9SATI1ST MARIES-NEAR SANTA06-27-2022DISCHARGE (KAF)3317192
10PIHI1PORTNEUF-AT POCATELLO06-27-2022DISCHARGE (KAF)131869
11KADW1KACHESS-KACHESS DAM06-27-2022INFLOW (KAF)3822168
12HOTI1BRUNEAU-NEAR HOT SPRINGS06-27-2022DISCHARGE (KAF)242597
13BUDW1BUMPING-BUMPING LAKE DAM06-27-2022INFLOW (KAF)3726141
14DEDI1DEADWOOD-NEAR LOWMAN06-27-2022INFLOW (KAF)232692
15KEDW1YAKIMA-KEECHELUS LAKE06-27-2022INFLOW (KAF)4027147
16UMAO3UMATILLA-NEAR UMATILLA06-27-2022DISCHARGE (KAF)182769
17MAGI1BIG WOOD-MAGIC DAM06-27-2022INFLOW (KAF)3232101
18DLGM8CLARK FORK-AT DEER LODGE06-27-2022DISCHARGE (KAF)4337118
19MILI1SNAKE-AT MILNER06-27-2022DISCHARGE (KAF)0380
20STRM8ST. REGIS-NEAR ST. REGIS06-27-2022DISCHARGE (KAF)5939149
21MONO3NF JOHN DAY-AT MONUMENT06-27-2022DISCHARGE (KAF)9639244
22HWRI1BIG LOST-AT HOWELL RANCH NEAR CHILLY06-27-2022DISCHARGE (KAF)7452141
23WSRI1WEISER-NEAR WEISER06-27-2022DISCHARGE (KAF)5552107
24ARDW1ENTIAT-NEAR ARDENVOIR06-27-2022DISCHARGE (KAF)9155164
25MACI1BIG LOST-MACKAY RESERVOIR NEAR MACKAY06-27-2022INFLOW (KAF)8558146
26SERO3JOHN DAY-AT SERVICE CK06-27-2022DISCHARGE (KAF)10461172
27OWYO3OWYHEE-OWYHEE DAM06-27-2022INFLOW (KAF)486278
28HALI1BIG WOOD-AT HAILEY06-27-2022DISCHARGE (KAF)7464116
29CSDI1NF PAYETTE-CASCADE DAM06-27-2022INFLOW (KAF)7666114
30EASW1YAKIMA-AT EASTON06-27-2022DISCHARGE (KAF)697592
31RILW1TIETON-RIMROCK LAKE NEAR RIMROCK06-27-2022INFLOW (KAF)10680133
32ARAI1SF BOISE-ANDERSON RANCH DAM06-27-2022INFLOW (KAF)758589
33RCCM8ROCK CREEK-NEAR CLINTON06-27-2022DISCHARGE (KAF)9288105
34HODO3HOOD-NEAR TUCKER BRIDGE06-27-2022DISCHARGE (KAF)10090112
35CLUW1CLE ELUM-CLE ELUM LAKE06-27-2022INFLOW (KAF)20197207
36CHEI1FALL RIVER-NEAR CHESTER06-27-2022DISCHARGE (KAF)6310162
37CLFW1NACHES-NEAR CLIFFDEL06-27-2022DISCHARGE (KAF)133102130
38DRMM8CLARK FORK-NR DRUMMOND06-27-2022DISCHARGE (KAF)10510897
39IPDI1HENRYS FORK-ISLAND PARK DAM06-27-2022INFLOW (KAF)11813488
40PARW1YAKIMA-NEAR PARKER06-27-2022DISCHARGE (KAF)155135114
41UNDW1WHITE SALMON-NEAR UNDERWOOD06-27-2022DISCHARGE (KAF)191163117
42PRTI1PRIEST-NEAR PRIEST RIVER06-27-2022DISCHARGE (KAF)255172148
43TEAI1TETON-NEAR ST. ANTHONY06-27-2022DISCHARGE (KAF)186182102
44BIGI1BOISE-AT GLENWOOD BRIDGE06-27-2022DISCHARGE (KAF)195190103
45PARI1BOISE-NEAR PARMA06-27-2022DISCHARGE (KAF)220193114
46PATW1METHOW-NEAR PATEROS06-27-2022DISCHARGE (KAF)375199189
47PITW1KLICKITAT-NEAR PITT06-27-2022DISCHARGE (KAF)238201118
48JLKW4SNAKE-JACKSON LAKE AT DAM06-27-2022INFLOW (KAF)217206106
49BONM8BLACKFOOT-NEAR BONNER06-27-2022DISCHARGE (KAF)301212142
50NACW1NACHES-NEAR NACHES06-27-2022DISCHARGE (KAF)19522487
51TRYO3GRANDE RONDE-TROY06-27-2022DISCHARGE (KAF)399245163
52LAUW1KETTLE-AT LAURIER06-27-2022DISCHARGE (KAF)395247160
53COEI1COEUR D ALENE-COEUR D ALENE LAKE06-27-2022INFLOW (KAF)410253162
54BITM8BITTERROOT-NEAR MISSOULA06-27-2022DISCHARGE (KAF)379302126
55REXI1HENRYS FORK-AT REXBURG06-27-2022DISCHARGE (KAF)29430298
56ANTI1HENRYS FORK-AT ST. ANTHONY06-27-2022DISCHARGE (KAF)25630385
57CHDW1CHELAN-LAKE CHELAN DAM06-27-2022INFLOW (KAF)811344236
58EMMI1PAYETTE-NEAR EMMETT06-27-2022DISCHARGE (KAF)448352127
59HHWM8SF FLATHEAD-HUNGRY HORSE DAM06-27-2022INFLOW (KAF)579367158
60PESW1WENATCHEE-AT PESHASTIN06-27-2022DISCHARGE (KAF)688378182
61WGCM8MF FLATHEAD-NEAR WEST GLACIER06-27-2022DISCHARGE (KAF)716380188
62KIOW1YAKIMA-AT KIONA06-27-2022DISCHARGE (KAF)459389118
63DWRI1NF CLEARWATER-DWORSHAK DAM06-27-2022INFLOW (KAF)592390152
64TONW1OKANOGAN-NEAR TONASKET06-27-2022DISCHARGE (KAF)822415198
65SPOW1SPOKANE-AT SPOKANE06-27-2022DISCHARGE (KAF)472422112
66FCFM8NF FLATHEAD-NEAR COLUMBIA FALLS06-27-2022DISCHARGE (KAF)741430172
67ABOM8CLARK FORK-ABOVE MISSOULA06-27-2022DISCHARGE (KAF)520438119
68LUCI1BOISE-LUCKY PEAK DAM06-27-2022INFLOW (KAF)570543105
69LLKW1SPOKANE-AT LONGLAKE06-27-2022INFLOW (KAF)667572117
70UMTW1YAKIMA-AT UMTANUM06-27-2022DISCHARGE (KAF)658642103
71BFTI1SNAKE-NEAR BLACKFOOT06-27-2022DISCHARGE (KAF)52064481
72SNAI1SNAKE-AT BLACKFOOT06-27-2022DISCHARGE (KAF)53267279
73ORFI1CLEARWATER-AT OROFINO06-27-2022DISCHARGE (KAF)1008692146
74BELM8CLARK FORK-BELOW MISSOULA06-27-2022DISCHARGE (KAF)900760118
75JKSW4SNAKE-NEAR JACKSON06-27-2022DISCHARGE (KAF)94398895
76SRGM8CLARK FORK-AT ST REGIS06-27-2022DISCHARGE (KAF)1159989117
77MODO3DESCHUTES-AT MOODY NR BIGGS06-27-2022DISCHARGE (KAF)1069108998
78ALPW4SNAKE-NEAR ALPINE06-27-2022DISCHARGE (KAF)1110115996
79AFRI1SNAKE-AMERICAN FALLS RESERVOIR06-27-2022INFLOW (KAF)1074118291
80SHYI1SNAKE-NEAR SHELLEY06-27-2022DISCHARGE (KAF)1027122384
81SIFI1SNAKE-AB EAGLE ROCK NR IDAHO FALLS06-27-2022DISCHARGE (KAF)1186133589
82PLDI1SF SNAKE-PALISADES DAM06-27-2022INFLOW (KAF)1425149795
83WHBI1SALMON-AT WHITEBIRD06-27-2022DISCHARGE (KAF)18451510122
84CFMM8FLATHEAD-AT COLUMBIA FALLS06-27-2022DISCHARGE (KAF)23621584149
85SWAI1SNAKE-BELOW SWAN FALLS06-27-2022DISCHARGE (KAF)1564164895
86KERM8FLATHEAD-SELI’Š KSANKA QLISPE’ DAM06-27-2022INFLOW (KAF)27131880144
87HEII1SNAKE-NEAR HEISE06-27-2022DISCHARGE (KAF)1955218290
88SPDI1CLEARWATER-AT SPALDING06-27-2022DISCHARGE (KAF)29462289129
89LYDM8KOOTENAI-LIBBY DAM06-27-2022INFLOW (KAF)33672312146
90LEOI1KOOTENAI-AT LEONIA06-27-2022DISCHARGE (KAF)27862415115
91WEII1SNAKE-AT WEISER06-27-2022DISCHARGE (KAF)25102452102
92BRNI1SNAKE-BROWNLEE DAM06-27-2022INFLOW (KAF)26342559103
93NOXM8CLARK FORK-NOXON RAPIDS DAM06-27-2022INFLOW (KAF)45183300137
94CABI1CLARK FORK-CABINET GORGE DAM06-27-2022INFLOW (KAF)49793635137
95ALFW1PEND OREILLE-ALBENI FALLS DAM06-27-2022INFLOW (KAF)51873658142
96ANAW1SNAKE-NEAR ANATONE06-27-2022DISCHARGE (KAF)52234824108
97LMNW1SNAKE-LOWER MONUMENTAL DAM06-27-2022INFLOW (KAF)81847279112
98LGSW1SNAKE-LITTLE GOOSE DAM06-27-2022INFLOW (KAF)81457284112
99IHDW1SNAKE-ICE HARBOR DAM06-27-2022INFLOW (KAF)81907292112
100LGDW1SNAKE-LOWER GRANITE DAM06-27-2022INFLOW (KAF)81697293112
101GCDW1COLUMBIA-GRAND COULEE DAM06-27-2022INFLOW (KAF)3008822064136
102CHJW1COLUMBIA-CHIEF JOSEPH DAM06-27-2022INFLOW (KAF)2893522195130
103WELW1COLUMBIA-WELLS DAM06-27-2022INFLOW (KAF)3019122987131
104CIBW1COLUMBIA-AT INTL BOUNDARY06-27-2022DISCHARGE (KAF)2889123159125
105RRHW1COLUMBIA-ROCKY REACH DAM06-27-2022INFLOW (KAF)3101823643131
106WANW1COLUMBIA-WANAPUM DAM06-27-2022INFLOW (KAF)3214523956134
107PRWW1COLUMBIA-PRIEST RAPIDS DAM06-27-2022INFLOW (KAF)3216624068134
108JDAO3COLUMBIA-JOHN DAY DAM06-27-2022INFLOW (KAF)4171831903131
109MCDW1COLUMBIA-MCNARY DAM06-27-2022INFLOW (KAF)4117332130128
110TDAO3COLUMBIA-THE DALLES DAM06-27-2022INFLOW (KAF)4221432357130
111BONO3COLUMBIA-BONNEVILLE DAM06-27-2022INFLOW (KAF)4281133355128
112BFEI1KOOTENAI-AT BONNERS FERRY06-27-2022STAGE (FT)MMM
113HOPI1PEND OREILLE-PEND OREILLE LAKE NR HOPE06-27-2022LAKE ELEVATION (FT)MMM
114SJMI1ST JOE-AT ST MARIES06-27-2022STAGE (FT)MMM
115BULO3BULLY CREEK-BULLY CREEK DAM06-27-2022INFLOW (KAF)MMM